[[{"header":{"parameterUnit":"m.s-1","parameterCategory":1,"la1":30.2991,"la2":30.254,"lo1":-89.0895,"lo2":-89.0444,"dy":0.0017,"dx":0.0017,"nx":28,"ny":28,"refTime":"2025-07-13T03:00:00:Z","depth":0,"parameterNumber":2,"parameterNumberName":"U-component_of_WINDS"},"data":[0,0,0,0,0,0,0,0,0,0,0,0,0,0,0,0,0,0,0,0,0,0,0,0,0,0,0,0,0,0,0,0,0,0,0,0,0,0,0,0,0,0,0,0,0,0,0,0,0,0,0,0,0,0,0,0,0,0,1.0204,1.0205,0,1.0323,1.0324,1.0325,1.0321,1.0319,1.0317,1.0316,1.0442,1.0447,1.0452,0,0,0,0,0,0,0,0,0,0,0,0,0,0.9976,0.998,1.0204,1.0205,1.0207,1.0322,1.0324,1.0326,1.0321,1.0319,1.0317,1.0315,1.0441,1.0446,1.0452,0,0,0,0,0,0,0,0,0,0,0,0,0,1.0083,0.9982,1.0203,1.0218,1.022,1.0322,1.0324,1.0326,1.0321,1.0319,1.0316,1.0314,1.0439,1.0446,1.0453,1.0549,0,0,1.0476,1.0479,0,0,0,0,0,0,0,0,1.0077,1.0092,1.0214,1.0217,1.022,1.0304,1.029,1.0401,1.0322,1.0283,1.0316,1.0313,1.0399,1.0409,1.0437,1.0555,1.0561,1.0476,1.0481,1.0484,1.0486,0,0,0,0,0,0,0,1.007,1.0086,1.0251,1.0216,1.022,1.022,1.0232,1.0311,1.0354,1.0286,1.0286,1.03,1.04,1.043,1.044,1.0563,1.0476,1.0483,1.0487,1.049,1.0766,1.0769,0,0,0,0,0,0,1.0059,1.008,1.0247,1.0254,1.0141,1.0226,1.024,1.028,1.0353,1.0361,1.0302,1.0299,1.0419,1.0431,1.0445,1.0562,1.0484,1.0491,1.0495,1.0763,1.0767,1.077,0,0,0,0,0,0,1.0054,1.0073,1.0242,1.0167,1.0189,1.0233,1.0277,1.0283,1.0314,1.0365,1.0373,1.0325,1.0417,1.0434,1.0523,1.0566,1.0494,1.0501,1.076,1.0764,1.0768,1.0798,0,0,0,0,0,0,1.0047,1.0072,1.0108,1.0168,1.0193,1.0318,1.028,1.0288,1.0326,1.0323,1.0388,1.0397,1.0416,1.0512,1.053,1.0575,1.0507,1.0756,1.0762,1.0767,1.0793,1.0803,1.0811,0,0,0,0,0,1.0039,1.0112,1.011,1.013,1.0239,1.032,1.0334,1.0354,1.0329,1.0367,1.0399,1.0395,1.0559,1.0521,1.0542,1.059,1.0754,1.076,1.0767,1.0789,1.0801,1.0811,0,0,0,0,0,0,1.0058,1.012,1.0118,1.0213,1.0261,1.0319,1.0367,1.0366,1.0423,1.0419,1.0442,1.0457,1.0546,1.0577,1.0534,1.0687,1.0653,1.0664,1.0663,1.0675,1.0683,1.0674,1.0513,0,0,0,0,0,1.0072,1.0132,1.0184,1.0263,1.0287,1.0323,1.0359,1.037,1.0421,1.0442,1.0481,1.0533,1.0596,1.0637,1.0698,1.0798,1.0812,1.0841,1.0849,1.0856,1.0866,1.0921,1.0934,1.0791,1.0791,1.0791,0,0,1.0104,1.0146,1.0182,1.0268,1.0306,1.0368,1.034,1.0407,1.0454,1.0453,1.0539,1.057,1.0629,1.0723,1.0767,1.0752,1.0908,1.0865,1.087,1.0875,1.0929,1.0942,1.0954,1.0796,1.0795,1.0794,0,0,1.0194,1.0231,1.03,1.0339,1.0397,1.0421,1.0437,1.0496,1.0516,1.0602,1.0602,1.0659,1.0767,1.0809,1.0845,1.095,1.0948,1.0969,1.1015,1.1068,1.108,1.109,1.1127,1.1141,1.0978,1.0978,1.0978,0,1.0226,1.0319,1.0337,1.0404,1.0442,1.0442,1.0513,1.0551,1.0627,1.0653,1.0635,1.077,1.081,1.0914,1.094,1.0968,1.0989,1.0962,1.1076,1.1087,1.1096,1.1133,1.1147,1.0981,1.098,1.098,1.098,0,1.0356,1.042,1.0469,1.0541,1.0584,1.0653,1.0683,1.0725,1.0732,1.0758,1.0846,1.0894,1.0964,1.099,1.0998,1.1096,1.1084,1.1071,1.1038,1.1112,1.1146,1.116,1.0984,1.0983,1.0982,1.0982,0,0,1.046,1.054,1.0558,1.059,1.0655,1.0705,1.0775,1.0842,1.0878,1.093,1.099,1.1081,1.1069,1.1109,1.1122,1.1169,1.1249,1.115,1.1152,1.1167,1.136,1.1369,1.1385,1.1248,1.1251,1.1253,1.1355,0,1.0557,1.0678,1.0696,1.0804,1.0864,1.0865,1.0925,1.0972,1.0998,1.1054,1.1083,1.1147,1.1126,1.115,1.1196,1.123,1.1289,1.1223,1.1305,1.1307,1.1289,1.1403,1.1414,1.1507,1.1368,1.1371,1.1372,0,1.0685,1.0739,1.0852,1.0908,1.0934,1.0987,1.1051,1.1103,1.1157,1.1172,1.1217,1.1224,1.1298,1.1261,1.1363,1.1317,1.1352,1.1374,1.1378,1.1386,1.1344,1.1415,1.1538,1.1552,1.1394,1.1392,1.1391,0,1.075,1.0851,1.0932,1.0959,1.1026,1.1064,1.1094,1.1145,1.1184,1.124,1.1266,1.133,1.1365,1.1415,1.144,1.1411,1.1541,1.1506,1.1556,1.1556,1.1583,1.1581,1.1714,1.1606,1.1606,1.1606,1.1605,0,1.0855,1.0924,1.0961,1.1011,1.1089,1.111,1.1187,1.1216,1.1261,1.1317,1.1323,1.1376,1.1406,1.1463,1.1484,1.1565,1.1581,1.1596,1.1601,1.1596,1.1594,1.1619,1.1613,1.1609,1.1608,1.1608,1.1607,0,1.094,1.0968,1.1056,1.1112,1.1128,1.1183,1.1231,1.128,1.1305,1.1376,1.1394,1.1435,1.1503,1.1533,1.1617,1.1631,1.1724,1.1724,1.1705,1.1707,1.1755,1.175,1.1908,1.193,1.1808,1.1809,1.181,0,1.1005,1.1058,1.112,1.1157,1.1188,1.1248,1.1287,1.1311,1.1352,1.1417,1.1458,1.1526,1.1581,1.169,1.1728,1.1793,1.1794,1.1845,1.1804,1.1797,1.1795,1.1791,1.1797,1.1853,1.1854,1.1855,1.1856,0,1.1118,1.1129,1.1185,1.1247,1.1293,1.1343,1.1392,1.1423,1.1453,1.15,1.1569,1.1612,1.1697,1.1765,1.1831,1.1864,1.1866,1.1868,1.1883,1.1878,1.1865,1.1873,1.1725,1.1864,1.1864,1.1863,1.1862,1.1862,1.1196,1.1242,1.1293,1.1355,1.1394,1.1439,1.1488,1.1519,1.1576,1.1646,1.1657,1.1731,1.1783,1.1873,1.1908,1.1966,1.1954,1.1976,1.1981,1.1986,1.1989,1.1856,1.1979,1.1979,1.1978,1.1978,1.1978,0,1.1308,1.134,1.1398,1.1465,1.1514,1.151,1.1564,1.1606,1.167,1.1718,1.1772,1.1851,1.1917,1.1959,1.2026,1.2065,1.2067,1.2081,1.2079,1.2086,1.1996,1.1977,1.2078,1.2078,1.2078,1.2078,1.2078,1.2078,1.1373,1.1452,1.1469,1.1568,1.16,1.1671,1.1702,1.1744,1.1782,1.187,1.1924,1.1951,1.1997,1.2067,1.2127,1.2138,1.2162,1.2177,1.2187,1.2103,1.2092,1.2082,1.2064,1.2182,1.2182,1.2272,1.2273,1.2273]},{"header":{"parameterUnit":"m.s-1","parameterCategory":1,"la1":30.2991,"la2":30.254,"lo1":-89.0895,"lo2":-89.0444,"dy":0.0017,"dx":0.0017,"nx":28,"ny":28,"refTime":"2025-07-13T03:00:00:Z","depth":0,"parameterNumber":3,"parameterNumberName":"V-component_of_WINDS"},"data":[0,0,0,0,0,0,0,0,0,0,0,0,0,0,0,0,0,0,0,0,0,0,0,0,0,0,0,0,0,0,0,0,0,0,0,0,0,0,0,0,0,0,0,0,0,0,0,0,0,0,0,0,0,0,0,0,0,0,2.3007,2.3007,0,2.2963,2.2962,2.2962,2.2932,2.2932,2.2932,2.2932,2.2885,2.2883,2.2882,0,0,0,0,0,0,0,0,0,0,0,0,0,2.3064,2.3063,2.3007,2.3007,2.3006,2.2963,2.2962,2.2961,2.2933,2.2932,2.2932,2.2932,2.2885,2.2884,2.2882,0,0,0,0,0,0,0,0,0,0,0,0,0,2.3032,2.3063,2.3008,2.2987,2.2984,2.2963,2.2962,2.2961,2.2933,2.2932,2.2932,2.2932,2.2885,2.2884,2.2882,2.2877,0,0,2.2877,2.2876,0,0,0,0,0,0,0,0,2.3033,2.3029,2.299,2.2988,2.2985,2.2953,2.2965,2.2933,2.2933,2.2952,2.2932,2.2932,2.2907,2.2904,2.2896,2.2875,2.2873,2.2877,2.2876,2.2875,2.2875,0,0,0,0,0,0,0,2.3036,2.3031,2.299,2.299,2.2987,2.2978,2.2973,2.2959,2.2932,2.295,2.2948,2.2943,2.2906,2.2898,2.2895,2.2872,2.2877,2.2876,2.2875,2.2874,2.2841,2.2841,0,0,0,0,0,0,2.3042,2.3033,2.2991,2.2988,2.3009,2.2977,2.2972,2.2964,2.2932,2.2927,2.2944,2.2942,2.2901,2.2897,2.2893,2.2883,2.2875,2.2874,2.2873,2.2841,2.2841,2.2841,0,0,0,0,0,0,2.3043,2.3038,2.2993,2.301,2.3004,2.2977,2.2968,2.2963,2.2955,2.2927,2.2922,2.294,2.29,2.2895,2.2881,2.2881,2.2873,2.2871,2.2841,2.2841,2.2841,2.2864,0,0,0,0,0,0,2.3045,2.3039,2.3038,2.301,2.3003,2.2983,2.2968,2.2962,2.2952,2.295,2.2922,2.2917,2.29,2.2883,2.2879,2.2878,2.287,2.2841,2.2841,2.2841,2.2863,2.2865,2.2867,0,0,0,0,0,2.3047,2.3047,2.3038,2.3033,2.3001,2.2983,2.2978,2.2958,2.2952,2.295,2.2932,2.2918,2.2882,2.2882,2.2877,2.2876,2.2841,2.2841,2.2841,2.2863,2.2865,2.2867,0,0,0,0,0,0,2.3075,2.3043,2.3033,2.3024,2.3006,2.2978,2.2975,2.2962,2.2946,2.2944,2.2919,2.2913,2.29,2.2887,2.2888,2.2868,2.2859,2.2859,2.2877,2.2879,2.2881,2.2884,2.2869,0,0,0,0,0,2.308,2.3069,2.3041,2.3035,2.3027,2.3002,2.2994,2.298,2.296,2.2952,2.2933,2.2914,2.2898,2.2888,2.2872,2.2861,2.2853,2.2858,2.2859,2.2861,2.286,2.2851,2.2851,2.2842,2.2842,2.2842,0,0,2.3091,2.3071,2.3066,2.304,2.3025,2.3012,2.2996,2.2984,2.2974,2.295,2.2935,2.292,2.2897,2.2883,2.2877,2.2872,2.2861,2.2861,2.2863,2.2861,2.2851,2.2852,2.2853,2.2842,2.2842,2.2842,0,0,2.3103,2.3088,2.3081,2.3065,2.3042,2.3025,2.3024,2.2997,2.2986,2.297,2.2951,2.2938,2.2911,2.2894,2.2883,2.2885,2.2871,2.288,2.2889,2.288,2.2881,2.2881,2.288,2.288,2.288,2.288,2.288,0,2.3119,2.31,2.3079,2.3067,2.3055,2.3033,2.3023,2.3009,2.2982,2.2974,2.2969,2.2932,2.2916,2.2897,2.2897,2.2889,2.2884,2.2884,2.2883,2.2883,2.2883,2.2881,2.2881,2.2881,2.2881,2.2881,2.2881,0,2.3119,2.3106,2.3102,2.3076,2.3064,2.3054,2.3029,2.3019,2.3005,2.2988,2.2971,2.2949,2.2927,2.2921,2.2908,2.2899,2.2897,2.2888,2.2878,2.2885,2.2883,2.2883,2.2883,2.2883,2.2882,2.2882,0,0,2.3149,2.3109,2.3108,2.3095,2.3066,2.3055,2.3043,2.3021,2.3011,2.2993,2.298,2.2956,2.2947,2.2933,2.2917,2.291,2.291,2.2901,2.29,2.2902,2.2896,2.2902,2.2902,2.29,2.29,2.29,2.2897,0,2.3155,2.3133,2.3112,2.3096,2.3082,2.306,2.3048,2.3029,2.3012,2.2996,2.2977,2.296,2.295,2.2941,2.2932,2.2912,2.2908,2.2912,2.2887,2.2886,2.2892,2.2902,2.2909,2.2907,2.2896,2.2896,2.2896,0,2.3161,2.3142,2.3125,2.3096,2.3089,2.3079,2.3056,2.3042,2.3018,2.3006,2.299,2.2973,2.2956,2.2949,2.2924,2.2927,2.2915,2.2903,2.2902,2.2899,2.2891,2.2897,2.2907,2.2906,2.2895,2.2895,2.2895,0,2.3182,2.3153,2.3138,2.3127,2.3093,2.3086,2.3072,2.3047,2.3035,2.3014,2.3005,2.2982,2.297,2.2952,2.2928,2.2925,2.2905,2.2896,2.2893,2.2893,2.289,2.289,2.2896,2.2884,2.2884,2.2884,2.2884,0,2.3191,2.3181,2.3146,2.3137,2.3124,2.31,2.3087,2.307,2.3048,2.3034,2.3013,2.2999,2.297,2.2952,2.2933,2.2914,2.2909,2.2897,2.2892,2.2899,2.29,2.289,2.2889,2.2884,2.2884,2.2884,2.2884,0,2.3212,2.3189,2.3171,2.314,2.3131,2.3123,2.3095,2.3084,2.3065,2.3047,2.3042,2.3012,2.299,2.2964,2.2934,2.2921,2.2903,2.2896,2.2911,2.2908,2.2906,2.2906,2.2905,2.2903,2.2893,2.2893,2.2893,0,2.3219,2.321,2.3177,2.3167,2.3152,2.3135,2.3122,2.3096,2.3083,2.3053,2.3045,2.3022,2.3001,2.2966,2.2941,2.2917,2.2909,2.291,2.2905,2.2911,2.2907,2.2907,2.2905,2.2912,2.2912,2.2912,2.2912,0,2.3232,2.3221,2.3203,2.318,2.3165,2.3146,2.3125,2.3117,2.3087,2.3073,2.305,2.3034,2.3002,2.2978,2.295,2.2933,2.2916,2.2914,2.2911,2.2918,2.2926,2.2919,2.2914,2.2914,2.2914,2.2914,2.2914,2.2913,2.3245,2.3236,2.3211,2.319,2.3172,2.3153,2.3141,2.312,2.3101,2.3074,2.3059,2.3036,2.3009,2.297,2.2953,2.2933,2.2928,2.2925,2.2924,2.2924,2.2924,2.293,2.2928,2.2928,2.2928,2.2928,2.2928,0,2.3256,2.3239,2.322,2.3192,2.3176,2.3163,2.3139,2.3125,2.3106,2.3083,2.3063,2.3035,2.301,2.2983,2.2956,2.2945,2.2937,2.2939,2.2939,2.2935,2.2932,2.2936,2.2946,2.2946,2.2946,2.2946,2.2946,2.2946,2.326,2.3242,2.3228,2.32,2.3182,2.316,2.3147,2.3128,2.3109,2.308,2.306,2.3042,2.3016,2.2986,2.2963,2.2955,2.2945,2.2949,2.2939,2.2937,2.2935,2.2934,2.2937,2.2948,2.2948,2.2943,2.2943,2.2943]}]]